Regional Weather Roundup
Issued by NWS

Home | Current Version | Previous Version | Graphics & Text | Print | Product List | Glossary On
Versions: 1 2 3 4 5 6 7 8 9 10 11 12 13 14 15 16 17 18 19 20 21 22 23 24 25 26 27 28 29 30 31 32 33 34 35 36 37 38 39 40 41 42 43 44 45 46 47 48 49 50
539
ASUS43 KMPX 271501
RWRMN
WEATHER ROUNDUP FOR MINNESOTA
NATIONAL WEATHER SERVICE TWIN CITIES/CHANHASSEN MN
1000 AM CDT MON MAR 27 2017


NOTE: "FAIR" INDICATES FEW OR NO CLOUDS BELOW 12,000 FEET WITH NO
SIGNIFICANT WEATHER AND/OR OBSTRUCTIONS TO VISIBILITY. N/A MEANS
CURRENT SKY AND/OR WEATHER CONDITIONS ARE NOT AVAILABLE.

MNZ060>063-068>070-271600-
   Twin Cities Metro

CITY           SKY/WX    TMP DP  RH WIND       PRES   REMARKS
TWIN CITIES    PTSUNNY   41  33  73 N3        29.97S
ST PAUL        CLOUDY    42  36  79 N6        29.99R
CRYSTAL        CLOUDY    44  34  67 N7        29.96S
BLAINE         MOSUNNY   45  39  81 N5        29.97S
LAKEVILLE      CLOUDY    39  37  93 N7        29.97R
EDEN PRAIRIE   PTSUNNY   45  36  70 N7        29.96S
SOUTH ST PAUL  CLOUDY    41  36  81 N5        29.97S
LAKE ELMO      CLOUDY    41  37  87 N6        29.98S
$$
MNZ001>005-007-008-013>017-022>024-027-028-271600-
   Northwest Minnesota

CITY           SKY/WX    TMP DP  RH WIND       PRES   REMARKS
BEMIDJI        SUNNY     41  35  79 E6        29.98S
HALLOCK        FOG       30  30 100 SE6       30.01R VSB<1/4 WCI  24
ROSEAU         SUNNY     36  30  80 CALM      30.00R
WARROAD        SUNNY     34  30  86 CALM      30.01R
THIEF RVR FALL FOG       34  33  96 CALM      30.01R VSB<1/4
CROOKSTON      FOG       36  36 100 CALM      30.01S VSB 1/2
FOSSTON        FOG       36  34  93 CALM      29.99S VSB<1/4
DETROIT LAKES  SUNNY     43  36  75 CALM      29.99S
MOORHEAD       FOG       36  36 100 CALM      30.00S VSB 1/4
PARK RAPIDS    SUNNY     45  33  63 VRB5      29.97R
MAHNOMEN       CLOUDY    35  35  99 CALM      29.99R FOG
$$
MNZ006-009>011-018-025>026-271600-
   North Central Minnesota

CITY           SKY/WX    TMP DP  RH WIND       PRES   REMARKS
BAUDETTE       FOG       32  31  96 CALM      29.99R VSB<1/4
FLAG ISLAND    MOSUNNY   32  30  93 CALM      30.00R
INTL FALLS     MOSUNNY   39  33  79 CALM      29.99R
WASKISH        PTSUNNY   36  36 100 CALM      30.00S FOG
BIG FORK       CLOUDY    37  34  87 CALM      29.98S
LONGVILLE      CLOUDY    39  34  81 CALM      29.98R
GRAND RAPIDS   CLOUDY    38  33  82 CALM      30.00R
CRANE LAKE     PTSUNNY   36  30  80 CALM      30.00R
ORR            MOSUNNY   36  30  80 CALM      29.96R
COOK           CLOUDY    37  32  81 CALM      29.98R
WALKER         FAIR      39  33  80 NE5       29.99R
$$
MNZ012-019>021-037-271600-
   Northeast Minnesota

CITY           SKY/WX    TMP DP  RH WIND       PRES   REMARKS
DULUTH         CLOUDY    37  34  89 N8        29.97R
ELY            MOSUNNY   37  30  75 N3        29.97R
HIBBING        CLOUDY    35  32  88 N3        29.97R
EVELETH        CLOUDY    38  32  77 CALM      29.98S
DULUTH HARBOR  CLOUDY    36  34  93 CALM      30.00R
TWO HARBORS    MOSUNNY   45  37  76 CALM      29.95R
SILVER BAY     MOSUNNY   43  36  75 N3        29.94S
GRAND MARAIS     N/A     36  34  92 SW3       29.96R
G MARAIS ARPRT MOSUNNY   37  28  70 N7        29.94R
$$
MNZ029>031-032-039>041-046>048-054>057-064-271600-
   West Central Minnesota

CITY           SKY/WX    TMP DP  RH WIND       PRES   REMARKS
FERGUS FALLS   CLOUDY    41  39  93 CALM      30.02R
WHEATON        CLOUDY    39  36  87 CALM      30.01R
MORRIS         CLOUDY    39  37  93 CALM      29.97S
ALEXANDRIA     CLOUDY    41  37  86 N3        29.98S
ELBOW LAKE     CLOUDY    38  37  95 CALM      29.99S
WADENA         CLOUDY    39  36  87 CALM      29.98R
GLENWOOD       MOSUNNY   41  36  81 NE3       29.98S
APPLETON       CLOUDY    43  37  81 CALM      29.98S
BENSON         PTSUNNY   43  36  75 CALM      29.99S
ORTONVILLE     CLOUDY    37  36  93 W3        29.99R
MADISON        CLOUDY    43  43 100 CALM      29.98S
WILLMAR        FAIR      39  39 100 CALM      29.99R
$$
MNZ033>034-036-042>043-049>051-058-059-271600-
   Central Minnesota

CITY           SKY/WX    TMP DP  RH WIND       PRES   REMARKS
ST CLOUD       MOSUNNY   44  37  76 N5        29.97R
SAUK CENTRE    PTSUNNY   40  35  83 CALM      29.98S
PAYNESVILLE      N/A     44  39  82 N3        29.98S
AITKIN         CLOUDY    43  32  65 NE3       29.96S
PINE RIVER     MOSUNNY   39  36  87 N3        30.01R
BRAINERD       CLOUDY    40  33  76 N3        29.98R
STAPLES        CLOUDY    43  34  70 CALM      29.98R
LONG PRAIRIE   FAIR      39  34  81 CALM      29.98S
LITTLE FALLS   CLOUDY    43  34  70 CALM      29.98S
LITCHFIELD     CLOUDY    45  39  81 N3        29.98R
BUFFALO        SUNNY     44  37  78 CALM      29.98S
MAPLE LAKE     CLOUDY    46  42  85 N5        29.98S
HUTCHINSON     MOSUNNY   47  39  76 NE6       29.98S
$$
MNZ037-044-045-052-053-271600-
   East Central Minnesota

CITY           SKY/WX    TMP DP  RH WIND       PRES   REMARKS
PRINCETON      CLOUDY    45  41  87 NW5       29.98R
MORA           CLOUDY    36  36 100 CALM      29.99S
CAMBRIDGE      SUNNY     45  37  76 CALM      29.95S
RUSH CITY      SUNNY     42  37  84 CALM      29.98S
MOOSE LAKE     CLOUDY    36  34  93 CALM      29.96S
CLOQUET        CLOUDY    37  36  93 NW3       29.97R
MCGREGOR       CLOUDY    37  34  87 CALM      29.98S
$$
MNZ071>073-080-081-089-090-097-098-271600-
   Southwest Minnesota

CITY           SKY/WX    TMP DP  RH WIND       PRES   REMARKS
MONTEVIDEO     CLOUDY    48  43  81 CALM      30.00R
GRANITE FALLS  SUNNY     46  40  79 CALM      30.00S
CANBY          MOSUNNY   45  40  81 CALM      29.99S
MARSHALL       CLOUDY    42  39  89 CALM      29.98S
REDWOOD FALLS  CLOUDY    43  37  79 CALM      29.98R
OLIVIA         SUNNY     45  37  76 CALM      29.97S
PIPESTONE      CLOUDY    43  36  75 CALM      29.96S
WINDOM         PTSUNNY   43  39  87 NW5       29.97R
WORTHINGTON    CLOUDY    41  37  86 N7        29.98R
JACKSON        CLOUDY    41  37  87 N6        29.97R
TRACY          CLOUDY    43  39  86 CALM      29.98S
SLAYTON        CLOUDY    40  37  91 CALM      29.98S
$$
MNZ065>067-074>077-082>085-091>093-271600-
   South Central Minnesota

CITY           SKY/WX    TMP DP  RH WIND       PRES   REMARKS
MANKATO        CLOUDY    41  36  82 N10       29.97S
NEW ULM        CLOUDY    43  37  81 CALM      29.97S
ST JAMES       CLOUDY    43  37  81 CALM      29.98S
FAIRMONT       CLOUDY    41  37  86 NE8       29.97R
GLENCOE        CLOUDY    43  39  88 N3        29.97R
FARIBAULT      CLOUDY    39  37  93 N9        29.97R
OWATONNA       CLOUDY    39  36  87 N8        29.96R
WASECA         CLOUDY    39  36  87 N9        29.97R
ALBERT LEA     CLOUDY    37  37 100 N3        29.95R FOG
$$
MNZ078>079-086>088-094>096-271600-
   Southeast Minnesota

CITY           SKY/WX    TMP DP  RH WIND       PRES   REMARKS
ROCHESTER      CLOUDY    38  38 100 NW7       29.95R
RED WING       CLOUDY    41  37  87 N5        29.96R
STANTON        CLOUDY    40  37  89 N6        29.96R
DODGE CENTER   CLOUDY    37  37 100 N3        29.95R FOG
WINONA         CLOUDY    41  37  87 NW6       29.96R
AUSTIN         CLOUDY    39  37  93 N3        29.95R FOG
PRESTON        CLOUDY    39  37  93 N6        29.94R
$$
ABBREVIATIONS USED IN REMARKS
   TC - TEMPERATURES IN CELSIUS
  WCI - WIND CHILL INDEX
   HX - HEAT INDEX
  VSB - VISIBILITY
$$




USA.gov is the U.S. government's official web portal to all federal, state and local government web resources and services.